This demonstration page uses our WeatherBlox Daily Observations layout. Learn more.

Hourly Observations for June 1, 2019

Temp ( °F °C ) Dew Point ( °F °C ) Humidity (%) Winds ( mph kmh ) Pressure ( in mb ) Visibility ( mi km ) Precip ( " mm )
12:15 am 00:15 Clear 64 18 59 15 83 83 S 7 11 29.85 1011 10 16.09344 0 0
12:35 am 00:35 Clear 65 18.4 59 15 81 81 S 9 15 29.85 1011 10 16.09344 0 0
12:55 am 00:55 Clear 65 18.1 59 15 82 82 S 9 15 29.85 1011 10 16.09344 0 0
1:15 am 01:15 Clear 63 17.3 58 14.7 85 85 SSW 7 11 29.85 1011 10 16.09344 0 0
1:35 am 01:35 Clear 63 17 58 14.7 86 86 SSW 7 11 29.85 1011 10 16.09344 0 0
1:55 am 01:55 Clear 64 17.5 58 14.5 83 83 SSW 9 15 29.85 1011 10 16.09344 0 0
2:15 am 02:15 Clear 63 17 57 14.1 83 83 SSW 7 11 29.85 1011 10 16.09344 0 0
2:35 am 02:35 Clear 63 17 57 13.9 82 82 NNW 9 15 29.88 1012 10 16.09344 0 0
2:55 am 02:55 Clear 64 17.9 56 13.3 75 75 WNW 6 9 29.88 1012 10 16.09344 0 0
3:15 am 03:15 Clear 63 17.3 56 13.1 77 77 W 6 9 29.88 1012 10 16.09344 0 0
3:35 am 03:35 Clear 64 17.5 56 13.2 76 76 WNW 5 7 29.88 1012 10 16.09344 0 0
3:55 am 03:55 Clear 62 16.7 55 13 79 79 Calm 29.88 1012 10 16.09344 0 0
4:15 am 04:15 Clear 62 16.5 55 12.7 78 78 Calm 29.85 1011 10 16.09344 0 0
4:35 am 04:35 Clear 58 14.5 54 12.1 86 86 Calm 29.88 1012 10 16.09344 0 0
4:55 am 04:55 Clear 60 15.4 54 12.4 82 82 Calm 29.85 1011 10 16.09344 0 0
5:15 am 05:15 Clear 58 14.5 54 12.4 87 87 WNW 7 11 29.88 1012 10 16.09344 0 0
5:35 am 05:35 Clear 58 14.6 55 12.9 90 90 NW 7 11 29.88 1012 10 16.09344 0 0
5:55 am 05:55 Clear 59 14.8 55 13 89 89 NW 7 11 29.91 1013 10 16.09344 0 0
6:15 am 06:15 Sunny 59 15 54 12 82 82 NNW 9 15 29.91 1013 10 16.09344 0 0
6:35 am 06:35 Sunny 58 14.4 53 11.7 84 84 NNW 8 13 29.91 1013 10 16.09344 0 0
6:55 am 06:55 Sunny 58 14.2 53 11.5 84 84 NNW 6 9 29.91 1013 10 16.09344 0 0
7:15 am 07:15 Sunny 58 14.5 53 11.5 82 82 NNW 9 15 29.94 1014 10 16.09344 0 0
7:35 am 07:35 Sunny 59 15.1 53 11.8 81 81 NNW 10 17 29.94 1014 10 16.09344 0 0
7:55 am 07:55 Sunny 60 15.8 54 12 78 78 N 15 24 29.91 1013 10 16.09344 0 0
8:15 am 08:15 Sunny 61 16.3 55 12.5 78 78 N 16 26 29.91 1013 10 16.09344 0 0
8:35 am 08:35 Sunny 62 16.8 55 12.8 77 77 N 16 26 29.91 1013 10 16.09344 0 0
8:55 am 08:55 Sunny 64 17.5 55 13 75 75 N 14 22 29.94 1014 10 16.09344 0 0
9:15 am 09:15 Sunny 65 18.2 56 13.1 72 72 N 16 26 29.94 1014 10 16.09344 0 0
9:35 am 09:35 Sunny 66 18.8 55 12.9 69 69 N 16 26 29.94 1014 10 16.09344 0 0
9:55 am 09:55 Sunny 68 19.9 56 13.6 67 67 N 16 26 29.91 1013 10 16.09344 0 0
10:15 am 10:15 Sunny 69 20.5 56 13.5 64 64 N 16 26 29.91 1013 10 16.09344 0 0
10:35 am 10:35 Sunny 70 21.1 56 13.2 61 61 N 22 35 29.91 1013 10 16.09344 0 0
10:55 am 10:55 Sunny 71 21.7 55 13 58 58 N 18 30 29.91 1013 10 16.09344 0 0
11:15 am 11:15 Sunny 71 21.8 55 12.9 57 57 N 14 22 29.94 1014 10 16.09344 0 0
11:35 am 11:35 Sunny 72 22.2 56 13.1 56 56 N 16 26 29.94 1014 10 16.09344 0 0
11:55 am 11:55 Sunny 73 22.5 56 13.5 57 57 N 14 22 29.94 1014 10 16.09344 0 0
12:15 pm 12:15 Sunny 73 22.7 56 13.6 57 57 NNE 15 24 29.94 1014 10 16.09344 0 0
12:35 pm 12:35 Sunny 74 23.1 56 13.5 55 55 N 13 20 29.94 1014 10 16.09344 0 0
12:55 pm 12:55 Sunny 73 22.8 55 13 54 54 N 14 22 29.94 1014 10 16.09344 0 0
1:15 pm 13:15 Sunny 73 23 56 13.4 55 55 NNE 15 24 29.94 1014 10 16.09344 0 0
1:35 pm 13:35 Sunny 74 23.4 55 13 52 52 N 12 19 29.91 1013 10 16.09344 0 0
1:55 pm 13:55 Sunny 74 23.5 55 12.6 50 50 N 10 17 29.91 1013 10 16.09344 0 0
2:15 pm 14:15 Sunny 75 23.8 56 13.5 53 53 NNE 13 20 29.91 1013 10 16.09344 0 0
2:35 pm 14:35 Sunny 74 23.6 55 12.5 50 50 NNE 10 17 29.88 1012 10 16.09344 0 0
2:55 pm 14:55 Sunny 75 23.9 55 12.6 49 49 NNE 12 19 29.88 1012 10 16.09344 0 0
3:15 pm 15:15 Sunny 76 24.2 56 13.1 50 50 NNE 10 17 29.88 1012 10 16.09344 0 0
3:35 pm 15:35 Sunny 76 24.2 55 12.9 49 49 N 13 20 29.88 1012 10 16.09344 0 0
3:55 pm 15:55 Sunny 76 24.5 55 12.5 47 47 NNE 9 15 29.88 1012 10 16.09344 0 0
4:15 pm 16:15 Sunny 76 24.3 53 11.7 45 45 N 9 15 29.88 1012 10 16.09344 0 0
4:35 pm 16:35 Sunny 76 24.2 54 12.2 47 47 NE 9 15 29.88 1012 10 16.09344 0 0
4:55 pm 16:55 Sunny 76 24.3 53 11.8 46 46 NNE 7 11 29.88 1012 10 16.09344 0 0
5:15 pm 17:15 Sunny 76 24.3 54 12.1 47 47 NNE 8 13 29.85 1011 10 16.09344 0 0
5:35 pm 17:35 Sunny 75 24.1 55 12.8 49 49 NNE 9 15 29.85 1011 10 16.09344 0 0
5:55 pm 17:55 Sunny 75 24.1 54 12.3 48 48 NE 13 20 29.85 1011 10 16.09344 0 0
6:15 pm 18:15 Sunny 75 23.7 53 11.8 47 47 NE 9 15 29.85 1011 10 16.09344 0 0
6:35 pm 18:35 Sunny 74 23.6 55 12.5 50 50 NE 12 19 29.85 1011 10 16.09344 0 0
6:55 pm 18:55 Sunny 74 23.4 53 11.9 49 49 NNE 10 17 29.85 1011 10 16.09344 0 0
7:15 pm 19:15 Sunny 73 23 54 12.1 50 50 NNE 9 15 29.85 1011 10 16.09344 0 0
7:35 pm 19:35 Sunny 71 21.9 53 11.8 53 53 NNE 7 11 29.91 1013 10 16.09344 0 0
7:55 pm 19:55 Sunny 71 21.9 54 12.4 55 55 NNE 7 11 29.91 1013 10 16.09344 0 0
8:15 pm 20:15 Sunny 70 21.3 54 12.4 57 57 NNE 7 11 29.91 1013 10 16.09344 0 0
8:35 pm 20:35 Sunny 69 20.8 54 12.3 58 58 NNE 7 11 29.91 1013 10 16.09344 0 0
8:55 pm 20:55 Sunny 67 19.6 55 12.5 64 64 NNE 7 11 29.91 1013 10 16.09344 0 0
9:15 pm 21:15 Clear 66 19 54 12.2 65 65 NNE 9 15 29.94 1014 10 16.09344 0 0
9:35 pm 21:35 Clear 64 17.9 54 12.3 70 70 NE 8 13 29.94 1014 10 16.09344 0 0
9:55 pm 21:55 Clear 64 17.8 54 12.2 70 70 NNE 9 15 29.94 1014 10 16.09344 0 0
10:15 pm 22:15 Clear 64 17.6 54 12.1 70 70 NE 8 13 29.97 1015 10 16.09344 0 0
10:35 pm 22:35 Clear 62 16.9 54 12.3 74 74 NE 6 9 30 1016 10 16.09344 0 0
10:55 pm 22:55 Clear 62 16.5 54 12 75 75 NE 7 11 30.03 1017 10 16.09344 0 0
11:15 pm 23:15 Clear 62 16.5 54 12 75 75 ENE 6 9 29.97 1015 10 16.09344 0 0
11:35 pm 23:35 Clear 61 16.2 54 12.1 77 77 ENE 5 7 30 1016 10 16.09344 0 0
11:55 pm 23:55 Clear 61 16.2 53 11.9 76 76 ENE 7 11 30 1016 10 16.09344 0 0

Powered by AerisWeather